Regional Weather Roundup
Issued by NWS Newport/Morehead, NC

Current Version | Previous Version | Text Only | Print | Product List | Glossary On
Versions: 1 2 3 4 5 6 7 8 9 10 11 12 13 14 15 16 17 18 19 20 21 22 23 24 25 26 27 28 29 30 31 32 33 34 35 36 37 38 39 40 41 42 43 44 45 46 47 48 49 50
000
ASUS42 KMHX 050913
RWRMHX
WEATHER ROUNDUP FOR EASTERN NORTH CAROLINA
NATIONAL WEATHER SERVICE NEWPORT/MOREHEAD CITY NC
500 AM EDT SUN JUL 05 2015

NOTE: "FAIR" INDICATES FEW OR NO CLOUDS BELOW 12,000 FEET
WITH NO SIGNIFICANT WEATHER AND/OR OBSTRUCTIONS TO VISIBILITY

NCZ015>017-031-032-045>047-102-103-051000-
NORTH COAST

CITY           SKY/WX    TMP DP  RH WIND       PRES   REMARKS
EDENTON        MOCLDY    74  71  90 S7        30.06R
ELIZABETH CITY MOCLDY    73  71  93 SW6       30.05R
KITTY HAWK     CLOUDY    77  71  83 W5        30.05R
MANTEO         MOCLDY    76  71  85 W5        30.06R

$$

NCZ045>047-081-094-103-104-051000-
CENTRAL COAST

CITY           SKY/WX    TMP DP  RH WIND       PRES   REMARKS
FRISCO         CLOUDY    76  75  97 SW8       30.08R
SWANQUARTER      N/A     79 N/A N/A W10G16    30.03S

$$

NCZ095-097-098-100-101-051000-
SOUTHERN COAST

CITY           SKY/WX    TMP DP  RH WIND       PRES   REMARKS
BEAUFORT       MOCLDY    79  75  87 SW9       30.09R
CEDAR ISLAND     N/A     79 N/A N/A SW8G14    30.12R
JACKSONVILLE   CLOUDY    77  68  73 W8        30.08S
PINEY ISLAND   PTSUNNY  N/A N/A N/A SW8       30.08R
WILMINGTON     MOCLDY    77  65  66 W7        30.09S


$$

NCZ011>013-027>030-043-044-078>080-089-090>093-098-051000-
COASTAL PLAIN

CITY           SKY/WX    TMP DP  RH WIND       PRES   REMARKS
AHOSKIE        PTCLDY   N/A N/A N/A CALM      30.07R
CLINTON        MOCLDY    74  70  86 CALM      30.09R
ELIZABETHTOWN  MOCLDY    75  68  79 CALM      30.09S
GOLDSBORO      MOCLDY    76  73  89 SW7       30.06R
GREENVILLE     CLOUDY    73  73 100 SW6       30.09R
HAVELOCK       MOCLDY    79  69  71 W12       30.09R
KENANSVILLE    MOCLDY    75  69  81 SW5       30.10R
KINSTON        CLOUDY    77  73  88 SW7       30.09R
NEW BERN       MOCLDY    78  72  81 SW7       30.09R
RICHLANDS      CLOUDY    75  66  73 SW5       30.09R
ROCKY MOUNT    PTCLDY    72  70  93 S5        30.07R
WASHINGTON     MOCLDY    76  73  90 SW7       30.08R
WHITEVILLE     MOCLDY    74  67  79 CALM      30.09S

$$

AMZ130-135-150-152-154-156-158-170-250-252-270-ANZ085-086-088-633-658-670-051000-
MARINE OBSERVATIONS

STATION/POSITION TIME  TEMP    WIND        PRES    WAVE   SWELL
                       AIR SEA DIR/SP/G            HT/PER HT/PER
                 (UTC) (F)     (DEG/KT/KT) (MB)    (FT/S) (FT/S)
CHESAPEAKE LIGHT 0900   75     250/  4/  4 1018.3
64 E VA BEACH    0850   76 76  230/  8/  8 1016.9    5/ 7   5/ 7
DUCK             0800   78 72  250/ 14/ 20   N/A
2 E DUCK         0811      77                N/A     2/ 6
OREGON INLET     0800   79 79  240/ 13/ 17 1017.5
13E OREGON INLT  0900      74                N/A     4/ 6
HATTERAS CG      0800   78 79  220/  7/ 10 1017.6
DIAMOND BUOY     0850   80 81  230/ 19/ 21 1018.2    5/ 6   2/ 8
CAPE LOOKOUT     0900   79     230/ 10/ 14 1018.7
BEAUFORT LAB     0800   79 80  240/  5/ 12 1017.8
30 SE NEW RVR IN NOT AVBL
27 SE WRIGHTSVLE 0800      80  240/ 12/ 16   N/A
5 SE WRIGHTSVLE  0808   79 78  250/ 10/ 12 1018.8
225 S CAPE HAT   0850   81 80  250/  8/ 10 1021.6    5/ 6   5/ 6
41 SE CHARLESTON 0850   81 81  220/ 16/ 17 1018.7    3/ 9   2/ 9

$$


USA.gov is the U.S. government's official web portal to all federal, state and local government web resources and services.